ZAREMBO AK US current weather conditions

sailwx.info

Wind from 183 at 2 knots gusting 8

Air temperature 10.0° C
Dewpoint -9.6° C

Last reported at 2015-Mar-02 21:55 UTC.
Time now 2015-Mar-02 23:15 UTC

Location: N 56°18' W 132°51'.
View on Google Maps.

See reports from other nearby stations

  
Tides and Currents Weather Stations Pressure Air Temp Water Temp Dewpoint Dewpoint Depression Visibility Wind Speed Wind Dir Waves Ship Positions
date/time (UTC)wind fromknots sea level pressurealtimeterstation pressurevisibilityair tempwater tempwave heightnotes
2015-Mar-02 21:55 183 2 gusting 8 10.0
2015-Mar-02 20:55 218 6 gusting 12 7.2
2015-Mar-02 19:55 226 6 gusting 11 6.7
2015-Mar-02 18:55 223 7 gusting 9 4.4
2015-Mar-02 17:55 229 3 gusting 12 4.4
2015-Mar-02 16:55 236 8 gusting 13 2.8
2015-Mar-02 15:55 249 5 gusting 9 0.6
2015-Mar-02 14:55 233 5 gusting 7 1.1
2015-Mar-02 13:55 268 4 gusting 6 0.6
2015-Mar-02 12:55 221 4 gusting 6 1.1
2015-Mar-02 11:55 264 2 gusting 5 0.6
2015-Mar-02 10:55 264 2 gusting 5 1.7
2015-Mar-02 09:55 218 1 gusting 5 2.2
2015-Mar-02 08:55 246 3 gusting 5 2.2
2015-Mar-02 07:55 235 1 gusting 5 2.8
2015-Mar-02 06:55 246 0 gusting 6 2.2
2015-Mar-02 05:55 257 1 gusting 3 2.2
2015-Mar-02 04:55 244 1 gusting 6 2.2
2015-Mar-02 03:55 245 3 gusting 12 3.3
2015-Mar-02 02:55 151 3 gusting 7 4.4
2015-Mar-02 01:55 160 4 gusting 9 5.6
2015-Mar-02 00:55 187 3 gusting 8 7.8
2015-Mar-01 23:55 206 3 gusting 13 7.8
2015-Mar-01 22:55 199 6 gusting 15 6.7
2015-Mar-01 21:55 191 6 gusting 12 6.1
2015-Mar-01 20:55 204 6 gusting 10 5.0
2015-Mar-01 19:55 174 3 gusting 12 3.3
2015-Mar-01 18:55 145 4 gusting 12 2.8
2015-Mar-01 17:55 340 0 gusting 4 1.7
2015-Mar-01 16:55 1.1
2015-Mar-01 15:55 333 1 gusting 3 0.6
2015-Mar-01 14:55 0.6
2015-Mar-01 13:55 -0.0
2015-Mar-01 12:55 217 2 gusting 3 -0.0
2015-Mar-01 11:55 255 1 gusting 5 1.1
2015-Mar-01 10:55 071 1 gusting 5 2.8
2015-Mar-01 09:55 016 1 gusting 2 2.8
2015-Mar-01 08:55 343 1 gusting 1 2.8
2015-Mar-01 07:55 043 0 gusting 2 2.2
2015-Mar-01 06:55 039 1 gusting 5 2.8
2015-Mar-01 05:55 066 2 gusting 4 2.8
2015-Mar-01 04:55 004 1 gusting 2 3.3
2015-Mar-01 03:55 2.8
2015-Mar-01 02:55 024 1 gusting 5 2.8
2015-Mar-01 01:55 040 2 gusting 4 3.9
2015-Mar-01 00:55 4.4
2015-Feb-28 23:55 038 4 gusting 5 7.2